TimeAKST,TemperatureF,Dew PointF,Humidity,Sea Level PressureIn,VisibilityMPH,Wind Direction,Wind SpeedMPH,Gust SpeedMPH,PrecipitationIn,Events,Conditions,WindDirDegrees,DateUTC
12:53 AM,10.9,-2.9,54,29.70,10.0,NW,24.2,34.5,N/A,,Clear,320,2011-11-16 09:53:00
1:53 AM,10.0,-4.0,53,29.70,10.0,NW,27.6,41.4,N/A,,Clear,320,2011-11-16 10:53:00
3:53 AM,10.9,-5.1,49,29.70,10.0,NW,25.3,38.0,N/A,,Clear,320,2011-11-16 12:53:00
4:53 AM,10.9,-5.1,49,29.71,10.0,NW,25.3,36.8,N/A,,Clear,310,2011-11-16 13:53:00
5:53 AM,10.9,-6.0,47,29.72,10.0,NW,24.2,40.3,N/A,,Clear,320,2011-11-16 14:53:00
6:53 AM,10.9,-6.0,47,29.73,10.0,NW,24.2,40.3,N/A,,Clear,320,2011-11-16 15:53:00
7:53 AM,10.9,-6.0,47,29.75,10.0,North,-9999.0,-,N/A,,Clear,0,2011-11-16 16:53:00
8:53 AM,12.0,-6.0,44,29.76,10.0,North,-9999.0,-,N/A,,Clear,0,2011-11-16 17:53:00
9:53 AM,12.0,-6.0,44,29.78,10.0,NW,23.0,35.7,N/A,,Scattered Clouds,320,2011-11-16 18:53:00
10:53 AM,12.0,-5.1,46,29.79,10.0,NW,25.3,36.8,N/A,,Clear,320,2011-11-16 19:53:00
11:53 AM,12.9,-5.1,45,29.79,10.0,NW,23.0,35.7,0.00,,Scattered Clouds,320,2011-11-16 20:53:00
12:53 PM,14.0,-6.0,41,29.81,10.0,NW,23.0,35.7,N/A,,Mostly Cloudy,320,2011-11-16 21:53:00
1:53 PM,14.0,-6.0,41,29.83,10.0,NNW,24.2,33.4,N/A,,Partly Cloudy,330,2011-11-16 22:53:00
2:53 PM,14.0,-6.0,41,29.83,10.0,NNW,23.0,35.7,N/A,,Partly Cloudy,340,2011-11-16 23:53:00
3:53 PM,12.9,-7.1,41,29.84,10.0,North,-9999.0,-,N/A,,Partly Cloudy,0,2011-11-17 00:53:00
4:53 PM,12.9,-7.1,41,29.85,10.0,NNW,24.2,39.1,N/A,,Clear,340,2011-11-17 01:53:00
5:53 PM,12.0,-7.1,42,29.86,10.0,NNW,23.0,36.8,N/A,,Clear,340,2011-11-17 02:53:00
6:53 PM,12.0,-7.1,42,29.86,10.0,NNW,19.6,33.4,N/A,,Clear,340,2011-11-17 03:53:00
7:53 PM,12.0,-7.1,42,29.87,10.0,NNW,23.0,34.5,N/A,,Clear,340,2011-11-17 04:53:00
8:53 PM,12.0,-7.1,42,29.88,10.0,NNW,21.9,38.0,N/A,,Clear,330,2011-11-17 05:53:00
9:53 PM,12.0,-8.0,41,29.89,10.0,NNW,18.4,33.4,N/A,,Clear,330,2011-11-17 06:53:00
10:53 PM,12.0,-8.0,41,29.88,10.0,NNW,24.2,31.1,N/A,,Clear,340,2011-11-17 07:53:00
11:53 PM,12.0,-8.0,41,29.90,10.0,NNW,27.6,33.4,N/A,,Clear,340,2011-11-17 08:53:00